Location: Dana
(41.8364°N, 106.7042°W)
Time: 13:46:05
(UTC+00:00)

Transit 2A - Pass Details

Date: 14 May 2026
Orbit: 595 x 948 km, 66.7° (Epoch: 8 June)

Event Time Altitude Azimuth Distance (km) Brightness Sun altitude
Rises 06:14:19 0° 340° (NNW) 3,235 10.5 -28.5°
Reaches altitude 10° 06:17:58 10° 5° (N) 2,221 9.3 -28.6°
Maximum altitude 06:20:39 14° 38° (NE) 1,882 8.4 -28.7°
Drops below altitude 10° 06:23:13 10° 70° (ENE) 2,102 8.3 -28.8°
Enters shadow 06:23:13 10° 70° (ENE) 2,103 8.3 -28.8°
Sets 06:26:29 0° 96° (E) 2,946 - -28.9°
